Wetterdaten: Sonntag, 16.02.2014
Datum Zeit Temperatur Luftfeuchte Luftdruck Regen Wind Richtung Richtung Taupunkt Windchill Windben
16.02.2014 00:00 4,9 C 77 % 1011,8 hPa 0,0 l/m 7,9 km/h (2 Bft) S-SW 202 1,2 C 2,6 C 11,9 km/h (2 Bft)
16.02.2014 00:05 4,8 C 77 % 1011,8 hPa 0,0 l/m 8,0 km/h (2 Bft) S-SW 202 1,1 C 2,4 C 8,2 km/h (2 Bft)
16.02.2014 00:10 4,7 C 77 % 1011,8 hPa 0,0 l/m 7,7 km/h (2 Bft) S-SW 202 1,0 C 2,7 C 10,1 km/h (2 Bft)
16.02.2014 00:15 4,7 C 78 % 1011,8 hPa 0,0 l/m 6,9 km/h (2 Bft) S 180 1,2 C 3,5 C 15,0 km/h (3 Bft)
16.02.2014 00:20 4,7 C 78 % 1011,8 hPa 0,0 l/m 7,9 km/h (2 Bft) S 180 1,2 C 2,3 C 10,0 km/h (2 Bft)
16.02.2014 00:25 4,7 C 78 % 1011,8 hPa 0,0 l/m 8,4 km/h (2 Bft) S 180 1,2 C 1,7 C 17,1 km/h (3 Bft)
16.02.2014 00:30 4,7 C 78 % 1012,1 hPa 0,0 l/m 8,9 km/h (2 Bft) S 180 1,2 C 1,1 C 19,3 km/h (3 Bft)
16.02.2014 00:35 4,6 C 78 % 1012,1 hPa 0,0 l/m 8,9 km/h (2 Bft) S 180 1,1 C 1,1 C 7,6 km/h (2 Bft)
16.02.2014 00:40 4,5 C 78 % 1012,1 hPa 0,0 l/m 7,7 km/h (2 Bft) S-SW 202 1,0 C 2,2 C 7,1 km/h (2 Bft)
16.02.2014 00:45 4,4 C 78 % 1012,1 hPa 0,0 l/m 6,8 km/h (2 Bft) S-SW 202 0,9 C 3,2 C 11,6 km/h (2 Bft)
16.02.2014 00:50 4,2 C 79 % 1012,3 hPa 0,0 l/m 5,8 km/h (2 Bft) S-SW 202 0,9 C 3,8 C 6,8 km/h (2 Bft)
16.02.2014 00:55 4,2 C 79 % 1012,3 hPa 0,0 l/m 6,6 km/h (2 Bft) S 180 0,9 C 3,0 C 6,1 km/h (2 Bft)
16.02.2014 01:00 4,2 C 79 % 1012,3 hPa 0,0 l/m 7,1 km/h (2 Bft) W-SW 247 0,9 C 2,4 C 6,6 km/h (2 Bft)
16.02.2014 01:05 4,1 C 80 % 1012,3 hPa 0,0 l/m 6,8 km/h (2 Bft) S 180 1,0 C 2,7 C 7,2 km/h (2 Bft)
16.02.2014 01:10 4,0 C 80 % 1012,6 hPa 0,0 l/m 7,1 km/h (2 Bft) N 360 0,9 C 2,2 C 11,3 km/h (2 Bft)
16.02.2014 01:15 4,0 C 81 % 1012,6 hPa 0,0 l/m 7,6 km/h (2 Bft) S 180 1,0 C 1,6 C 12,7 km/h (3 Bft)
16.02.2014 01:20 3,8 C 81 % 1012,6 hPa 0,0 l/m 8,9 km/h (2 Bft) S 180 0,8 C -0,3 C 12,1 km/h (2 Bft)
16.02.2014 01:25 3,7 C 81 % 1012,6 hPa 0,0 l/m 8,0 km/h (2 Bft) SW 225 0,7 C 0,3 C 5,3 km/h (1 Bft)
16.02.2014 01:30 3,7 C 82 % 1012,6 hPa 0,0 l/m 7,2 km/h (2 Bft) S-SO 157 0,9 C 1,2 C 11,6 km/h (2 Bft)
16.02.2014 01:35 3,6 C 82 % 1012,6 hPa 0,0 l/m 7,2 km/h (2 Bft) S-SW 202 0,8 C 1,1 C 4,8 km/h (1 Bft)
16.02.2014 01:40 3,4 C 82 % 1012,6 hPa 0,0 l/m 6,3 km/h (2 Bft) S-SO 157 0,6 C 2,0 C 5,1 km/h (1 Bft)
16.02.2014 01:45 3,4 C 82 % 1012,6 hPa 0,0 l/m 6,0 km/h (2 Bft) S 180 0,6 C 2,0 C 11,7 km/h (2 Bft)
16.02.2014 01:50 3,2 C 82 % 1012,4 hPa 0,0 l/m 7,1 km/h (2 Bft) S-SO 157 0,4 C 0,7 C 6,6 km/h (2 Bft)
16.02.2014 01:55 3,1 C 83 % 1012,4 hPa 0,0 l/m 7,6 km/h (2 Bft) S 180 0,5 C -0,0 C 8,7 km/h (2 Bft)
16.02.2014 02:00 3,0 C 83 % 1012,4 hPa 0,0 l/m 6,0 km/h (2 Bft) W 270 0,4 C 1,6 C 4,0 km/h (1 Bft)
16.02.2014 02:05 3,0 C 83 % 1012,4 hPa 0,0 l/m 5,8 km/h (2 Bft) SW 225 0,4 C 1,6 C 6,0 km/h (2 Bft)
16.02.2014 02:09 3,0 C 83 % 1012,6 hPa 0,0 l/m 5,8 km/h (2 Bft) SO 135 0,4 C 1,6 C 9,2 km/h (2 Bft)
16.02.2014 02:10 3,0 C 83 % 1012,6 hPa 0,0 l/m 5,8 km/h (2 Bft) SO 135 0,4 C 1,6 C 9,2 km/h (2 Bft)
16.02.2014 02:15 3,0 C 83 % 1012,6 hPa 0,0 l/m 5,6 km/h (1 Bft) O 90 0,4 C 1,7 C 6,8 km/h (2 Bft)
16.02.2014 02:20 3,0 C 83 % 1012,6 hPa 0,0 l/m 7,7 km/h (2 Bft) S-SO 157 0,4 C -0,4 C 22,0 km/h (4 Bft)
16.02.2014 02:25 3,0 C 83 % 1012,6 hPa 0,0 l/m 8,7 km/h (2 Bft) N 360 0,4 C -1,6 C 7,1 km/h (2 Bft)
16.02.2014 02:30 2,9 C 84 % 1012,9 hPa 0,0 l/m 8,4 km/h (2 Bft) S-SO 157 0,5 C -1,2 C 10,8 km/h (2 Bft)
16.02.2014 02:35 3,0 C 82 % 1012,9 hPa 0,0 l/m 7,6 km/h (2 Bft) S-SW 202 0,2 C -0,0 C 9,0 km/h (2 Bft)
16.02.2014 02:40 2,9 C 83 % 1012,9 hPa 0,0 l/m 6,6 km/h (2 Bft) O 90 0,3 C 1,2 C 6,1 km/h (2 Bft)
16.02.2014 02:45 2,8 C 83 % 1012,9 hPa 0,0 l/m 5,0 km/h (1 Bft) SW 225 0,2 C 1,9 C 2,1 km/h (1 Bft)
16.02.2014 02:50 2,8 C 83 % 1012,9 hPa 0,0 l/m 5,5 km/h (1 Bft) S-SO 157 0,2 C 1,7 C 5,6 km/h (1 Bft)
16.02.2014 02:55 2,8 C 83 % 1012,9 hPa 0,0 l/m 5,6 km/h (1 Bft) S 180 0,2 C 1,7 C 7,1 km/h (2 Bft)
16.02.2014 03:00 2,8 C 83 % 1012,9 hPa 0,0 l/m 5,3 km/h (1 Bft) S 180 0,2 C 1,8 C 10,9 km/h (2 Bft)
16.02.2014 03:05 2,7 C 83 % 1012,9 hPa 0,0 l/m 4,8 km/h (1 Bft) S 180 0,1 C 2,0 C 5,3 km/h (1 Bft)
16.02.2014 03:10 2,6 C 83 % 1013,0 hPa 0,0 l/m 3,9 km/h (1 Bft) W-SW 247 0,0 C 2,5 C 4,3 km/h (1 Bft)
16.02.2014 03:15 2,6 C 83 % 1013,0 hPa 0,0 l/m 4,0 km/h (1 Bft) SO 135 0,0 C 2,3 C 4,2 km/h (1 Bft)
16.02.2014 03:20 2,6 C 83 % 1013,0 hPa 0,0 l/m 3,4 km/h (1 Bft) S-SO 157 0,0 C 2,5 C 7,1 km/h (2 Bft)
16.02.2014 03:25 2,6 C 83 % 1013,0 hPa 0,0 l/m 3,9 km/h (1 Bft) S-SW 202 0,0 C 2,2 C 3,9 km/h (1 Bft)
16.02.2014 03:30 2,5 C 83 % 1013,0 hPa 0,0 l/m 4,5 km/h (1 Bft) S-SO 157 -0,1 C 1,8 C 5,8 km/h (2 Bft)
16.02.2014 03:35 2,5 C 83 % 1013,0 hPa 0,0 l/m 4,3 km/h (1 Bft) S-SO 157 -0,1 C 1,8 C 6,6 km/h (2 Bft)
16.02.2014 03:40 2,5 C 84 % 1013,0 hPa 0,0 l/m 6,1 km/h (2 Bft) S 180 0,1 C 1,1 C 8,2 km/h (2 Bft)
16.02.2014 03:45 2,5 C 84 % 1013,0 hPa 0,0 l/m 6,6 km/h (2 Bft) S 180 0,1 C 0,5 C 7,2 km/h (2 Bft)
16.02.2014 03:50 2,4 C 85 % 1013,1 hPa 0,0 l/m 6,3 km/h (2 Bft) S-SW 202 0,1 C 0,7 C 6,8 km/h (2 Bft)
16.02.2014 03:55 2,3 C 85 % 1013,1 hPa 0,0 l/m 6,1 km/h (2 Bft) S 180 0,0 C 0,8 C 8,7 km/h (2 Bft)
16.02.2014 04:00 2,3 C 85 % 1013,1 hPa 0,0 l/m 6,6 km/h (2 Bft) S 180 0,0 C 0,3 C 7,4 km/h (2 Bft)
16.02.2014 04:05 2,3 C 86 % 1013,1 hPa 0,0 l/m 7,1 km/h (2 Bft) S 180 0,2 C -0,4 C 13,0 km/h (3 Bft)
16.02.2014 04:10 2,2 C 86 % 1013,4 hPa 0,0 l/m 6,8 km/h (2 Bft) S-SO 157 0,1 C -0,1 C 7,6 km/h (2 Bft)
16.02.2014 04:15 2,2 C 86 % 1013,4 hPa 0,0 l/m 6,8 km/h (2 Bft) S 180 0,1 C -0,1 C 7,7 km/h (2 Bft)
16.02.2014 04:20 2,1 C 86 % 1013,4 hPa 0,0 l/m 6,0 km/h (2 Bft) S-SO 157 0,0 C 0,6 C 6,4 km/h (2 Bft)
16.02.2014 04:25 2,1 C 87 % 1013,4 hPa 0,0 l/m 6,0 km/h (2 Bft) S-SW 202 0,2 C 0,6 C 7,4 km/h (2 Bft)
16.02.2014 04:30 2,0 C 87 % 1013,2 hPa 0,0 l/m 6,4 km/h (2 Bft) S 180 0,1 C 0,2 C 7,6 km/h (2 Bft)
16.02.2014 04:35 2,0 C 87 % 1013,2 hPa 0,0 l/m 6,0 km/h (2 Bft) O-SO 112 0,1 C 0,4 C 8,5 km/h (2 Bft)
16.02.2014 04:40 1,9 C 88 % 1013,2 hPa 0,0 l/m 6,0 km/h (2 Bft) S-SW 202 0,1 C 0,3 C 5,3 km/h (1 Bft)
16.02.2014 04:45 1,9 C 88 % 1013,2 hPa 0,0 l/m 6,6 km/h (2 Bft) SO 135 0,1 C -0,1 C 9,8 km/h (2 Bft)
16.02.2014 04:50 1,9 C 89 % 1013,6 hPa 0,0 l/m 6,6 km/h (2 Bft) S 180 0,3 C -0,1 C 8,4 km/h (2 Bft)
16.02.2014 04:55 1,9 C 89 % 1013,6 hPa 0,0 l/m 7,2 km/h (2 Bft) S 180 0,3 C -1,0 C 10,0 km/h (2 Bft)
16.02.2014 05:00 1,9 C 90 % 1013,6 hPa 0,0 l/m 7,1 km/h (2 Bft) S-SO 157 0,4 C -0,8 C 8,0 km/h (2 Bft)
16.02.2014 05:05 1,8 C 91 % 1013,6 hPa 0,0 l/m 6,3 km/h (2 Bft) S-SO 157 0,5 C 0,2 C 5,0 km/h (1 Bft)
16.02.2014 05:10 1,9 C 92 % 1013,6 hPa 0,0 l/m 6,0 km/h (2 Bft) SO 135 0,7 C 0,3 C 7,2 km/h (2 Bft)
16.02.2014 05:15 1,9 C 92 % 1013,6 hPa 0,0 l/m 6,0 km/h (2 Bft) S 180 0,7 C 0,4 C 6,3 km/h (2 Bft)
16.02.2014 05:20 1,8 C 93 % 1013,6 hPa 0,0 l/m 5,5 km/h (1 Bft) S 180 0,8 C 0,6 C 3,5 km/h (1 Bft)
16.02.2014 05:25 1,8 C 93 % 1013,6 hPa 0,0 l/m 5,3 km/h (1 Bft) S 180 0,8 C 0,7 C 7,6 km/h (2 Bft)
16.02.2014 05:30 1,9 C 93 % 1014,2 hPa 0,0 l/m 5,1 km/h (1 Bft) S-SO 157 0,9 C 0,7 C 6,9 km/h (2 Bft)
16.02.2014 05:35 1,9 C 93 % 1014,2 hPa 0,0 l/m 5,5 km/h (1 Bft) S-SO 157 0,9 C 0,6 C 9,8 km/h (2 Bft)
16.02.2014 05:40 2,0 C 93 % 1014,2 hPa 0,0 l/m 6,4 km/h (2 Bft) S-SW 202 1,0 C 0,2 C 7,1 km/h (2 Bft)
16.02.2014 05:45 2,0 C 93 % 1014,2 hPa 0,0 l/m 7,1 km/h (2 Bft) S 180 1,0 C -0,6 C 7,1 km/h (2 Bft)
16.02.2014 05:50 1,9 C 94 % 1014,5 hPa 0,0 l/m 6,4 km/h (2 Bft) SO 135 1,0 C 0,2 C 4,7 km/h (1 Bft)
16.02.2014 05:55 1,9 C 94 % 1014,5 hPa 0,0 l/m 6,3 km/h (2 Bft) O-SO 112 1,0 C 0,3 C 7,1 km/h (2 Bft)
16.02.2014 06:00 1,9 C 94 % 1014,5 hPa 0,0 l/m 5,8 km/h (2 Bft) SO 135 1,0 C 0,3 C 4,3 km/h (1 Bft)
16.02.2014 06:05 1,9 C 94 % 1014,5 hPa 0,0 l/m 5,3 km/h (1 Bft) S-SO 157 1,0 C 0,4 C 6,8 km/h (2 Bft)
16.02.2014 06:10 1,8 C 94 % 1014,2 hPa 0,0 l/m 5,5 km/h (1 Bft) O-SO 112 0,9 C 0,3 C 6,4 km/h (2 Bft)
16.02.2014 06:15 1,7 C 94 % 1014,2 hPa 0,0 l/m 5,5 km/h (1 Bft) O-SO 112 0,8 C 0,2 C 7,6 km/h (2 Bft)
16.02.2014 06:20 1,7 C 94 % 1014,2 hPa 0,0 l/m 5,3 km/h (1 Bft) S 180 0,8 C 0,3 C 4,5 km/h (1 Bft)
16.02.2014 06:25 1,6 C 94 % 1014,2 hPa 0,0 l/m 5,6 km/h (1 Bft) O-NO 67 0,7 C 0,1 C 10,1 km/h (2 Bft)
16.02.2014 06:30 1,7 C 94 % 1014,1 hPa 0,0 l/m 5,5 km/h (1 Bft) O-SO 112 0,8 C 0,2 C 5,1 km/h (1 Bft)
16.02.2014 06:35 1,6 C 94 % 1014,1 hPa 0,0 l/m 5,3 km/h (1 Bft) SO 135 0,7 C 0,2 C 5,0 km/h (1 Bft)
16.02.2014 06:40 1,6 C 95 % 1014,1 hPa 0,0 l/m 4,3 km/h (1 Bft) O-SO 112 0,9 C 0,7 C 3,4 km/h (1 Bft)
16.02.2014 06:45 1,5 C 95 % 1014,1 hPa 0,0 l/m 3,5 km/h (1 Bft) SO 135 0,8 C 1,1 C 6,0 km/h (2 Bft)
16.02.2014 06:50 1,5 C 95 % 1014,2 hPa 0,0 l/m 2,6 km/h (1 Bft) O 90 0,8 C 1,6 C 4,8 km/h (1 Bft)
16.02.2014 06:55 1,6 C 95 % 1014,2 hPa 0,0 l/m 3,2 km/h (1 Bft) O-SO 112 0,9 C 1,2 C 2,9 km/h (1 Bft)
16.02.2014 07:00 1,5 C 95 % 1014,2 hPa 0,0 l/m 3,4 km/h (1 Bft) O-SO 112 0,8 C 1,1 C 6,3 km/h (2 Bft)
16.02.2014 07:05 1,5 C 95 % 1014,2 hPa 0,0 l/m 3,1 km/h (1 Bft) O 90 0,8 C 1,3 C 4,3 km/h (1 Bft)
16.02.2014 07:08 1,5 C 95 % 1013,8 hPa 0,0 l/m 2,9 km/h (1 Bft) O-SO 112 0,8 C 1,4 C 2,4 km/h (1 Bft)
16.02.2014 07:10 1,5 C 95 % 1013,8 hPa 0,0 l/m 2,9 km/h (1 Bft) O-SO 112 0,8 C 1,4 C 2,4 km/h (1 Bft)
16.02.2014 07:15 1,5 C 95 % 1013,8 hPa 0,0 l/m 2,7 km/h (1 Bft) O-SO 112 0,8 C 1,5 C 3,9 km/h (1 Bft)
16.02.2014 07:20 1,5 C 95 % 1013,8 hPa 0,0 l/m 2,4 km/h (1 Bft) SO 135 0,8 C 1,5 C 1,9 km/h (1 Bft)
16.02.2014 07:25 1,5 C 95 % 1013,8 hPa 0,0 l/m 2,3 km/h (1 Bft) S-SO 157 0,8 C 1,6 C 3,2 km/h (1 Bft)
16.02.2014 07:30 1,5 C 95 % 1014,2 hPa 0,0 l/m 1,6 km/h (1 Bft) NO 45 0,8 C 1,6 C 4,5 km/h (1 Bft)
16.02.2014 07:35 1,5 C 95 % 1014,2 hPa 0,0 l/m 2,3 km/h (1 Bft) NO 45 0,8 C 1,6 C 2,6 km/h (1 Bft)
16.02.2014 07:40 1,5 C 95 % 1014,2 hPa 0,0 l/m 2,9 km/h (1 Bft) NO 45 0,8 C 1,4 C 2,6 km/h (1 Bft)
16.02.2014 07:45 1,5 C 95 % 1014,2 hPa 0,0 l/m 2,4 km/h (1 Bft) NO 45 0,8 C 1,6 C 2,9 km/h (1 Bft)
16.02.2014 07:50 1,5 C 95 % 1014,2 hPa 0,0 l/m 1,3 km/h (1 Bft) O 90 0,8 C 1,6 C 0,0 km/h (0 Bft)
16.02.2014 07:55 1,5 C 95 % 1014,2 hPa 0,0 l/m 1,0 km/h (0 Bft) O-SO 112 0,8 C 1,6 C 0,0 km/h (0 Bft)
16.02.2014 08:00 1,5 C 95 % 1014,2 hPa 0,0 l/m 0,3 km/h (0 Bft) O 90 0,8 C 1,6 C 0,0 km/h (0 Bft)
16.02.2014 08:05 1,6 C 96 % 1014,2 hPa 0,0 l/m 0,2 km/h (0 Bft) N-NO 22 1,0 C 1,6 C 2,4 km/h (1 Bft)
16.02.2014 08:10 1,6 C 96 % 1014,1 hPa 0,0 l/m 0,3 km/h (0 Bft) S-SO 157 1,0 C 1,8 C 0,0 km/h (0 Bft)
16.02.2014 08:15 1,6 C 96 % 1014,1 hPa 0,0 l/m 0,5 km/h (0 Bft) S-SO 157 1,0 C 1,8 C 2,4 km/h (1 Bft)
16.02.2014 08:20 1,7 C 96 % 1014,1 hPa 0,0 l/m 0,6 km/h (0 Bft) NO 45 1,1 C 1,9 C 0,0 km/h (0 Bft)
16.02.2014 08:25 1,8 C 96 % 1014,1 hPa 0,0 l/m 1,9 km/h (1 Bft) O-SO 112 1,2 C 2,0 C 3,1 km/h (1 Bft)
16.02.2014 08:30 1,9 C 96 % 1014,8 hPa 0,0 l/m 4,2 km/h (1 Bft) S 180 1,3 C 1,2 C 7,4 km/h (2 Bft)
16.02.2014 08:35 2,0 C 96 % 1014,8 hPa 0,0 l/m 5,0 km/h (1 Bft) O-SO 112 1,4 C 0,8 C 6,1 km/h (2 Bft)
16.02.2014 08:40 2,0 C 96 % 1014,8 hPa 0,0 l/m 5,3 km/h (1 Bft) SO 135 1,4 C 0,8 C 7,4 km/h (2 Bft)
16.02.2014 08:45 2,0 C 96 % 1014,8 hPa 0,0 l/m 5,6 km/h (1 Bft) O-SO 112 1,4 C 0,7 C 6,8 km/h (2 Bft)
16.02.2014 08:50 2,1 C 96 % 1014,9 hPa 0,0 l/m 6,3 km/h (2 Bft) O-SO 112 1,5 C 0,4 C 7,2 km/h (2 Bft)
16.02.2014 08:55 2,1 C 95 % 1014,9 hPa 0,0 l/m 6,0 km/h (2 Bft) S-SO 157 1,4 C 0,6 C 8,4 km/h (2 Bft)
16.02.2014 09:00 2,1 C 95 % 1014,9 hPa 0,0 l/m 5,8 km/h (2 Bft) NO 45 1,4 C 0,6 C 11,1 km/h (2 Bft)
16.02.2014 09:05 2,2 C 95 % 1014,9 hPa 0,0 l/m 5,1 km/h (1 Bft) S 180 1,5 C 0,9 C 8,5 km/h (2 Bft)
16.02.2014 09:10 2,3 C 95 % 1014,8 hPa 0,0 l/m 5,8 km/h (2 Bft) O 90 1,6 C 0,7 C 6,6 km/h (2 Bft)
16.02.2014 09:15 2,4 C 95 % 1014,8 hPa 0,0 l/m 6,1 km/h (2 Bft) O-SO 112 1,7 C 0,7 C 4,0 km/h (1 Bft)
16.02.2014 09:20 2,4 C 94 % 1014,8 hPa 0,0 l/m 5,5 km/h (1 Bft) S-SO 157 1,5 C 1,1 C 7,1 km/h (2 Bft)
16.02.2014 09:25 2,5 C 94 % 1014,8 hPa 0,0 l/m 5,3 km/h (1 Bft) O-SO 112 1,6 C 1,1 C 6,8 km/h (2 Bft)
16.02.2014 09:30 2,5 C 93 % 1014,8 hPa 0,0 l/m 5,0 km/h (1 Bft) S-SO 157 1,5 C 1,4 C 9,5 km/h (2 Bft)
16.02.2014 09:35 2,6 C 93 % 1014,8 hPa 0,0 l/m 4,8 km/h (1 Bft) O-SO 112 1,6 C 1,4 C 7,4 km/h (2 Bft)
16.02.2014 09:40 2,7 C 93 % 1014,8 hPa 0,0 l/m 5,3 km/h (1 Bft) S-SO 157 1,7 C 1,4 C 6,0 km/h (2 Bft)
16.02.2014 09:45 2,8 C 93 % 1014,8 hPa 0,0 l/m 5,0 km/h (1 Bft) O-SO 112 1,8 C 1,7 C 4,0 km/h (1 Bft)
16.02.2014 09:50 2,8 C 93 % 1014,7 hPa 0,0 l/m 3,5 km/h (1 Bft) O-SO 112 1,8 C 2,7 C 3,7 km/h (1 Bft)
16.02.2014 09:55 2,8 C 93 % 1014,7 hPa 0,0 l/m 3,4 km/h (1 Bft) N-NO 22 1,8 C 2,7 C 5,0 km/h (1 Bft)
16.02.2014 10:00 2,8 C 93 % 1014,7 hPa 0,0 l/m 2,4 km/h (1 Bft) W-SW 247 1,8 C 3,3 C 0,0 km/h (0 Bft)
16.02.2014 10:05 2,9 C 93 % 1014,7 hPa 0,0 l/m 1,0 km/h (0 Bft) N 360 1,9 C 3,5 C 2,7 km/h (1 Bft)
16.02.2014 10:10 3,2 C 92 % 1014,9 hPa 0,0 l/m 0,5 km/h (0 Bft) N-NW 337 2,0 C 3,9 C 0,0 km/h (0 Bft)
16.02.2014 10:15 3,5 C 92 % 1014,9 hPa 0,0 l/m 1,0 km/h (0 Bft) W 270 2,3 C 4,2 C 2,7 km/h (1 Bft)
16.02.2014 10:20 3,7 C 92 % 1014,9 hPa 0,0 l/m 1,8 km/h (1 Bft) SO 135 2,5 C 4,7 C 3,9 km/h (1 Bft)
16.02.2014 10:25 3,7 C 92 % 1014,9 hPa 0,0 l/m 1,9 km/h (1 Bft) S 180 2,5 C 4,8 C 0,0 km/h (0 Bft)
16.02.2014 10:30 3,6 C 91 % 1014,8 hPa 0,0 l/m 2,7 km/h (1 Bft) NO 45 2,3 C 4,8 C 2,4 km/h (1 Bft)
16.02.2014 10:35 3,5 C 91 % 1014,8 hPa 0,0 l/m 2,3 km/h (1 Bft) O-SO 112 2,2 C 4,8 C 0,0 km/h (0 Bft)
16.02.2014 10:40 3,6 C 91 % 1014,8 hPa 0,0 l/m 1,9 km/h (1 Bft) S 180 2,3 C 4,8 C 3,1 km/h (1 Bft)
16.02.2014 10:45 3,6 C 91 % 1014,8 hPa 0,0 l/m 2,3 km/h (1 Bft) SO 135 2,3 C 4,8 C 3,4 km/h (1 Bft)
16.02.2014 10:50 3,5 C 90 % 1015,0 hPa 0,0 l/m 2,4 km/h (1 Bft) O-SO 112 2,0 C 4,7 C 0,0 km/h (0 Bft)
16.02.2014 10:55 3,8 C 90 % 1015,0 hPa 0,0 l/m 1,9 km/h (1 Bft) S 180 2,3 C 4,8 C 5,3 km/h (1 Bft)
16.02.2014 11:00 3,9 C 89 % 1015,0 hPa 0,0 l/m 3,4 km/h (1 Bft) S-SO 157 2,3 C 4,9 C 6,8 km/h (2 Bft)
16.02.2014 11:05 4,1 C 89 % 1015,0 hPa 0,0 l/m 4,5 km/h (1 Bft) N 360 2,5 C 4,5 C 2,6 km/h (1 Bft)
16.02.2014 11:10 4,2 C 88 % 1015,2 hPa 0,0 l/m 4,5 km/h (1 Bft) S 180 2,4 C 4,6 C 6,6 km/h (2 Bft)
16.02.2014 11:15 4,3 C 88 % 1015,2 hPa 0,0 l/m 4,8 km/h (1 Bft) S-SO 157 2,5 C 4,6 C 6,8 km/h (2 Bft)
16.02.2014 11:20 4,3 C 85 % 1015,2 hPa 0,0 l/m 7,1 km/h (2 Bft) S 180 2,0 C 3,3 C 17,7 km/h (3 Bft)
16.02.2014 11:25 4,2 C 83 % 1015,2 hPa 0,0 l/m 8,4 km/h (2 Bft) SO 135 1,6 C 1,7 C 10,9 km/h (2 Bft)
16.02.2014 11:30 4,3 C 83 % 1015,4 hPa 0,0 l/m 7,7 km/h (2 Bft) O 90 1,7 C 2,3 C 3,7 km/h (1 Bft)
16.02.2014 11:35 4,4 C 81 % 1015,4 hPa 0,0 l/m 6,6 km/h (2 Bft) S-SO 157 1,4 C 3,7 C 4,3 km/h (1 Bft)
16.02.2014 11:40 4,4 C 81 % 1015,4 hPa 0,0 l/m 5,0 km/h (1 Bft) S-SO 157 1,4 C 4,7 C 5,6 km/h (1 Bft)
16.02.2014 11:45 4,5 C 80 % 1015,4 hPa 0,0 l/m 5,0 km/h (1 Bft) S-SO 157 1,4 C 4,9 C 9,0 km/h (2 Bft)
16.02.2014 11:50 4,6 C 82 % 1015,1 hPa 0,0 l/m 4,3 km/h (1 Bft) O-SO 112 1,8 C 5,3 C 4,7 km/h (1 Bft)
16.02.2014 11:55 4,6 C 83 % 1015,1 hPa 0,0 l/m 3,1 km/h (1 Bft) S-SO 157 2,0 C 6,0 C 3,2 km/h (1 Bft)
16.02.2014 12:00 4,6 C 85 % 1015,1 hPa 0,0 l/m 2,4 km/h (1 Bft) S 180 2,3 C 6,1 C 3,1 km/h (1 Bft)
16.02.2014 12:05 4,6 C 86 % 1015,1 hPa 0,0 l/m 2,3 km/h (1 Bft) S-SW 202 2,5 C 6,2 C 0,0 km/h (0 Bft)
16.02.2014 12:10 4,6 C 84 % 1015,0 hPa 0,0 l/m 1,3 km/h (1 Bft) O-SO 112 2,1 C 6,2 C 3,1 km/h (1 Bft)
16.02.2014 12:15 4,5 C 85 % 1015,0 hPa 0,0 l/m 0,8 km/h (0 Bft) O-SO 112 2,2 C 6,2 C 0,0 km/h (0 Bft)
16.02.2014 12:20 4,4 C 84 % 1015,0 hPa 0,0 l/m 0,6 km/h (0 Bft) S 180 1,9 C 6,1 C 0,0 km/h (0 Bft)
16.02.2014 12:25 4,4 C 85 % 1015,0 hPa 0,0 l/m 0,5 km/h (0 Bft) N-NW 337 2,1 C 6,0 C 0,0 km/h (0 Bft)
16.02.2014 12:30 4,4 C 85 % 1015,1 hPa 0,0 l/m 0,2 km/h (0 Bft) N-NW 337 2,1 C 6,0 C 0,0 km/h (0 Bft)
16.02.2014 12:35 4,5 C 85 % 1015,1 hPa 0,0 l/m 0,3 km/h (0 Bft) W-SW 247 2,2 C 6,0 C 1,8 km/h (1 Bft)
16.02.2014 12:40 4,6 C 84 % 1015,1 hPa 0,0 l/m 1,9 km/h (1 Bft) W 270 2,1 C 6,0 C 1,6 km/h (1 Bft)
16.02.2014 12:45 4,6 C 85 % 1015,1 hPa 0,0 l/m 2,6 km/h (1 Bft) W-NW 292 2,3 C 6,0 C 0,0 km/h (0 Bft)
16.02.2014 12:50 4,6 C 82 % 1015,2 hPa 0,0 l/m 1,9 km/h (1 Bft) W-NW 292 1,8 C 6,1 C 0,0 km/h (0 Bft)
16.02.2014 12:55 4,6 C 79 % 1015,2 hPa 0,0 l/m 2,7 km/h (1 Bft) W-NW 292 1,3 C 6,0 C 3,9 km/h (1 Bft)
16.02.2014 13:00 4,6 C 80 % 1015,2 hPa 0,0 l/m 4,0 km/h (1 Bft) N-NW 337 1,5 C 5,5 C 6,6 km/h (2 Bft)
16.02.2014 13:05 4,6 C 83 % 1015,2 hPa 0,0 l/m 4,2 km/h (1 Bft) N-NW 337 2,0 C 5,4 C 3,5 km/h (1 Bft)
16.02.2014 13:10 4,6 C 82 % 1015,1 hPa 0,0 l/m 3,7 km/h (1 Bft) N-NW 337 1,8 C 5,5 C 3,1 km/h (1 Bft)
16.02.2014 13:15 4,7 C 78 % 1015,1 hPa 0,0 l/m 4,2 km/h (1 Bft) N-NW 337 1,2 C 5,3 C 7,7 km/h (2 Bft)
16.02.2014 13:20 4,7 C 80 % 1015,1 hPa 0,0 l/m 4,3 km/h (1 Bft) NW 315 1,6 C 5,2 C 5,1 km/h (1 Bft)
16.02.2014 13:25 4,6 C 83 % 1015,1 hPa 0,0 l/m 3,2 km/h (1 Bft) S-SO 157 2,0 C 5,6 C 1,6 km/h (1 Bft)
16.02.2014 13:30 4,6 C 84 % 1015,3 hPa 0,0 l/m 2,7 km/h (1 Bft) O-SO 112 2,1 C 5,6 C 5,1 km/h (1 Bft)
16.02.2014 13:35 4,6 C 83 % 1015,3 hPa 0,0 l/m 3,5 km/h (1 Bft) S 180 2,0 C 5,2 C 10,3 km/h (2 Bft)
16.02.2014 13:40 4,4 C 82 % 1015,3 hPa 0,0 l/m 4,5 km/h (1 Bft) SO 135 1,6 C 4,6 C 2,6 km/h (1 Bft)
16.02.2014 13:45 4,5 C 81 % 1015,3 hPa 0,0 l/m 4,5 km/h (1 Bft) O-SO 112 1,5 C 4,6 C 5,8 km/h (2 Bft)
16.02.2014 13:50 4,6 C 73 % 1015,2 hPa 0,0 l/m 5,8 km/h (2 Bft) S-SW 202 0,2 C 4,1 C 12,9 km/h (3 Bft)
16.02.2014 13:55 4,3 C 71 % 1015,2 hPa 0,0 l/m 7,9 km/h (2 Bft) S-SW 202 -0,5 C 1,9 C 7,4 km/h (2 Bft)
16.02.2014 14:00 4,2 C 75 % 1015,2 hPa 0,0 l/m 8,0 km/h (2 Bft) S 180 0,2 C 1,3 C 4,8 km/h (1 Bft)
16.02.2014 14:05 4,2 C 77 % 1015,2 hPa 0,0 l/m 6,1 km/h (2 Bft) S-SW 202 0,5 C 3,2 C 5,6 km/h (1 Bft)
16.02.2014 14:10 4,1 C 78 % 1015,2 hPa 0,0 l/m 5,0 km/h (1 Bft) O-SO 112 0,6 C 3,8 C 4,7 km/h (1 Bft)
16.02.2014 14:15 4,1 C 78 % 1015,2 hPa 0,0 l/m 4,7 km/h (1 Bft) S 180 0,6 C 3,9 C 5,0 km/h (1 Bft)
16.02.2014 14:20 3,8 C 77 % 1015,2 hPa 0,0 l/m 4,3 km/h (1 Bft) O-SO 112 0,1 C 3,9 C 6,0 km/h (2 Bft)
16.02.2014 14:25 3,6 C 77 % 1015,2 hPa 0,0 l/m 4,8 km/h (1 Bft) S 180 -0,0 C 3,3 C 7,2 km/h (2 Bft)
16.02.2014 14:30 3,4 C 77 % 1015,5 hPa 0,0 l/m 4,3 km/h (1 Bft) NO 45 -0,2 C 3,2 C 6,9 km/h (2 Bft)
16.02.2014 14:35 3,2 C 77 % 1015,5 hPa 0,0 l/m 4,0 km/h (1 Bft) O-SO 112 -0,4 C 3,1 C 4,5 km/h (1 Bft)
16.02.2014 14:40 3,0 C 78 % 1015,5 hPa 0,0 l/m 5,0 km/h (1 Bft) S-SO 157 -0,5 C 2,3 C 4,3 km/h (1 Bft)
16.02.2014 14:45 2,9 C 79 % 1015,5 hPa 0,0 l/m 4,2 km/h (1 Bft) S 180 -0,4 C 2,3 C 2,4 km/h (1 Bft)
16.02.2014 14:50 2,9 C 80 % 1015,2 hPa 0,0 l/m 2,6 km/h (1 Bft) S-SO 157 -0,2 C 3,1 C 3,5 km/h (1 Bft)
16.02.2014 14:55 2,8 C 81 % 1015,2 hPa 0,0 l/m 2,6 km/h (1 Bft) S 180 -0,1 C 3,0 C 5,8 km/h (2 Bft)
16.02.2014 15:00 2,9 C 79 % 1015,2 hPa 0,0 l/m 4,8 km/h (1 Bft) SO 135 -0,4 C 1,8 C 8,2 km/h (2 Bft)
16.02.2014 15:05 2,8 C 79 % 1015,2 hPa 0,0 l/m 6,0 km/h (2 Bft) O-SO 112 -0,5 C 1,2 C 6,9 km/h (2 Bft)
16.02.2014 15:10 2,8 C 79 % 1015,8 hPa 0,0 l/m 6,1 km/h (2 Bft) S-SW 202 -0,5 C 1,1 C 3,4 km/h (1 Bft)
16.02.2014 15:15 2,7 C 80 % 1015,8 hPa 0,0 l/m 5,6 km/h (1 Bft) S-SO 157 -0,4 C 1,2 C 9,3 km/h (2 Bft)
16.02.2014 15:20 2,5 C 82 % 1015,8 hPa 0,0 l/m 6,0 km/h (2 Bft) SO 135 -0,3 C 0,8 C 5,5 km/h (1 Bft)
16.02.2014 15:25 2,4 C 83 % 1015,8 hPa 0,0 l/m 5,8 km/h (2 Bft) S 180 -0,2 C 0,8 C 8,7 km/h (2 Bft)
16.02.2014 15:30 2,2 C 85 % 1015,9 hPa 0,0 l/m 5,6 km/h (1 Bft) O-NO 67 -0,1 C 0,7 C 7,7 km/h (2 Bft)
16.02.2014 15:35 2,0 C 86 % 1015,9 hPa 0,0 l/m 5,8 km/h (2 Bft) S-SO 157 -0,1 C 0,6 C 4,2 km/h (1 Bft)
16.02.2014 15:40 2,1 C 87 % 1015,9 hPa 0,0 l/m 4,5 km/h (1 Bft) S-SO 157 0,2 C 1,0 C 4,8 km/h (1 Bft)
16.02.2014 15:45 2,1 C 88 % 1015,9 hPa 0,0 l/m 3,5 km/h (1 Bft) S 180 0,3 C 1,6 C 3,9 km/h (1 Bft)
16.02.2014 15:50 2,1 C 89 % 1015,8 hPa 0,0 l/m 2,9 km/h (1 Bft) SO 135 0,5 C 2,1 C 6,9 km/h (2 Bft)
16.02.2014 15:55 2,1 C 89 % 1015,8 hPa 0,0 l/m 2,4 km/h (1 Bft) NO 45 0,5 C 2,2 C 2,1 km/h (1 Bft)
16.02.2014 16:00 2,1 C 90 % 1015,8 hPa 0,0 l/m 2,6 km/h (1 Bft) O-SO 112 0,6 C 2,3 C 1,6 km/h (1 Bft)
16.02.2014 16:05 2,1 C 91 % 1015,8 hPa 0,0 l/m 1,9 km/h (1 Bft) S 180 0,8 C 2,3 C 0,0 km/h (0 Bft)
16.02.2014 16:10 2,1 C 92 % 1015,8 hPa 0,0 l/m 1,4 km/h (1 Bft) NO 45 0,9 C 2,3 C 0,0 km/h (0 Bft)
16.02.2014 16:15 2,1 C 92 % 1015,8 hPa 0,0 l/m 1,6 km/h (1 Bft) S 180 0,9 C 2,3 C 2,4 km/h (1 Bft)
16.02.2014 16:20 2,0 C 92 % 1015,8 hPa 0,0 l/m 1,3 km/h (1 Bft) O 90 0,8 C 2,3 C 0,0 km/h (0 Bft)
16.02.2014 16:25 2,0 C 92 % 1015,8 hPa 0,0 l/m 1,9 km/h (1 Bft) S 180 0,8 C 2,3 C 7,4 km/h (2 Bft)
16.02.2014 16:30 1,9 C 93 % 1015,6 hPa 0,0 l/m 0,8 km/h (0 Bft) W-NW 292 0,9 C 2,2 C 0,0 km/h (0 Bft)
16.02.2014 16:35 1,9 C 93 % 1015,6 hPa 0,0 l/m 0,6 km/h (0 Bft) O-SO 112 0,9 C 2,2 C 2,6 km/h (1 Bft)
16.02.2014 16:40 1,8 C 93 % 1015,6 hPa 0,0 l/m 0,5 km/h (0 Bft) O-NO 67 0,8 C 2,2 C 0,0 km/h (0 Bft)
16.02.2014 16:45 1,8 C 93 % 1015,6 hPa 0,0 l/m 0,5 km/h (0 Bft) W-NW 292 0,8 C 2,1 C 1,6 km/h (1 Bft)
16.02.2014 16:50 1,8 C 93 % 1015,5 hPa 0,0 l/m 0,8 km/h (0 Bft) N-NO 22 0,8 C 2,1 C 2,4 km/h (1 Bft)
16.02.2014 16:55 1,8 C 93 % 1015,5 hPa 0,0 l/m 1,8 km/h (1 Bft) N 360 0,8 C 2,1 C 2,3 km/h (1 Bft)
16.02.2014 17:00 1,7 C 93 % 1015,5 hPa 0,0 l/m 1,9 km/h (1 Bft) N-NO 22 0,7 C 2,0 C 3,2 km/h (1 Bft)
16.02.2014 17:03 1,7 C 93 % 1015,5 hPa 0,0 l/m 1,3 km/h (1 Bft) NO 45 0,7 C 2,0 C 2,3 km/h (1 Bft)
16.02.2014 17:05 1,7 C 93 % 1015,5 hPa 0,0 l/m 1,3 km/h (1 Bft) NO 45 0,7 C 2,0 C 2,3 km/h (1 Bft)
16.02.2014 17:10 1,6 C 93 % 1015,5 hPa 0,0 l/m 1,0 km/h (0 Bft) W 270 0,6 C 2,0 C 0,0 km/h (0 Bft)
16.02.2014 17:15 1,6 C 93 % 1015,5 hPa 0,0 l/m 1,4 km/h (1 Bft) S-SW 202 0,6 C 1,9 C 2,4 km/h (1 Bft)
16.02.2014 17:20 1,6 C 94 % 1015,5 hPa 0,0 l/m 1,6 km/h (1 Bft) NO 45 0,7 C 1,9 C 3,4 km/h (1 Bft)
16.02.2014 17:25 1,6 C 94 % 1015,5 hPa 0,0 l/m 1,3 km/h (1 Bft) O-SO 112 0,7 C 1,9 C 0,0 km/h (0 Bft)
16.02.2014 17:30 1,6 C 93 % 1015,3 hPa 0,0 l/m 1,1 km/h (1 Bft) N-NO 22 0,6 C 1,8 C 1,8 km/h (1 Bft)
16.02.2014 17:35 1,5 C 93 % 1015,3 hPa 0,0 l/m 0,8 km/h (0 Bft) W-NW 292 0,5 C 1,8 C 0,0 km/h (0 Bft)
16.02.2014 17:40 1,5 C 94 % 1015,3 hPa 0,0 l/m 0,2 km/h (0 Bft) NO 45 0,6 C 1,8 C 3,4 km/h (1 Bft)
16.02.2014 17:45 1,5 C 93 % 1015,3 hPa 0,0 l/m 1,0 km/h (0 Bft) N 360 0,5 C 1,8 C 4,0 km/h (1 Bft)
16.02.2014 17:50 1,5 C 93 % 1015,4 hPa 0,0 l/m 1,3 km/h (1 Bft) NO 45 0,5 C 1,8 C 0,0 km/h (0 Bft)
16.02.2014 17:55 1,5 C 93 % 1015,4 hPa 0,0 l/m 1,0 km/h (0 Bft) N-NW 337 0,5 C 1,7 C 3,1 km/h (1 Bft)
16.02.2014 18:00 1,5 C 93 % 1015,4 hPa 0,0 l/m 1,8 km/h (1 Bft) N 360 0,5 C 1,8 C 4,0 km/h (1 Bft)
16.02.2014 18:05 1,4 C 93 % 1015,4 hPa 0,0 l/m 1,9 km/h (1 Bft) W-NW 292 0,4 C 1,8 C 0,0 km/h (0 Bft)
16.02.2014 18:10 1,4 C 93 % 1015,4 hPa 0,0 l/m 0,6 km/h (0 Bft) W-NW 292 0,4 C 1,7 C 0,0 km/h (0 Bft)
16.02.2014 18:15 1,4 C 93 % 1015,4 hPa 0,0 l/m 0,3 km/h (0 Bft) NO 45 0,4 C 1,7 C 0,0 km/h (0 Bft)
16.02.2014 18:20 1,4 C 93 % 1015,4 hPa 0,0 l/m 0,3 km/h (0 Bft) NW 315 0,4 C 1,7 C 0,0 km/h (0 Bft)
16.02.2014 18:25 1,4 C 93 % 1015,4 hPa 0,0 l/m 0,2 km/h (0 Bft) N 360 0,4 C 1,7 C 2,1 km/h (1 Bft)
16.02.2014 18:30 1,3 C 94 % 1015,5 hPa 0,0 l/m 1,3 km/h (1 Bft) W-NW 292 0,4 C 1,7 C 1,8 km/h (1 Bft)
16.02.2014 18:35 1,4 C 94 % 1015,5 hPa 0,0 l/m 2,3 km/h (1 Bft) W 270 0,5 C 1,8 C 2,1 km/h (1 Bft)
16.02.2014 18:40 1,5 C 94 % 1015,5 hPa 0,0 l/m 1,6 km/h (1 Bft) S 180 0,6 C 1,8 C 0,0 km/h (0 Bft)
16.02.2014 18:45 1,4 C 94 % 1015,5 hPa 0,0 l/m 1,3 km/h (1 Bft) S-SO 157 0,5 C 1,8 C 4,3 km/h (1 Bft)
16.02.2014 18:50 1,5 C 93 % 1015,5 hPa 0,0 l/m 1,9 km/h (1 Bft) S-SW 202 0,5 C 1,8 C 1,9 km/h (1 Bft)
16.02.2014 18:55 1,5 C 93 % 1015,5 hPa 0,0 l/m 2,7 km/h (1 Bft) W-NW 292 0,5 C 1,8 C 3,9 km/h (1 Bft)
16.02.2014 19:00 1,5 C 93 % 1015,5 hPa 0,0 l/m 3,1 km/h (1 Bft) W 270 0,5 C 1,6 C 4,2 km/h (1 Bft)
16.02.2014 19:05 1,5 C 93 % 1015,5 hPa 0,0 l/m 3,2 km/h (1 Bft) N-NO 22 0,5 C 1,5 C 6,1 km/h (2 Bft)
16.02.2014 19:10 1,5 C 93 % 1015,4 hPa 0,0 l/m 2,9 km/h (1 Bft) N-NW 337 0,5 C 1,7 C 5,5 km/h (1 Bft)
16.02.2014 19:15 1,6 C 93 % 1015,4 hPa 0,0 l/m 2,9 km/h (1 Bft) W 270 0,6 C 1,7 C 3,4 km/h (1 Bft)
16.02.2014 19:20 1,6 C 93 % 1015,4 hPa 0,0 l/m 4,2 km/h (1 Bft) S 180 0,6 C 0,9 C 2,9 km/h (1 Bft)
16.02.2014 19:25 1,5 C 93 % 1015,4 hPa 0,0 l/m 3,9 km/h (1 Bft) SO 135 0,5 C 1,1 C 2,4 km/h (1 Bft)
16.02.2014 19:30 1,4 C 93 % 1015,4 hPa 0,0 l/m 2,1 km/h (1 Bft) W-SW 247 0,4 C 1,7 C 2,7 km/h (1 Bft)
16.02.2014 19:35 1,4 C 93 % 1015,4 hPa 0,0 l/m 1,6 km/h (1 Bft) N-NW 337 0,4 C 1,6 C 1,8 km/h (1 Bft)
16.02.2014 19:40 1,4 C 93 % 1015,4 hPa 0,0 l/m 1,9 km/h (1 Bft) S-SW 202 0,4 C 1,5 C 0,0 km/h (0 Bft)
16.02.2014 19:45 1,3 C 94 % 1015,4 hPa 0,0 l/m 1,9 km/h (1 Bft) S 180 0,4 C 1,5 C 0,0 km/h (0 Bft)
16.02.2014 19:50 1,3 C 94 % 1015,2 hPa 0,0 l/m 1,3 km/h (1 Bft) W-SW 247 0,4 C 1,4 C 2,7 km/h (1 Bft)
16.02.2014 19:55 1,2 C 94 % 1015,2 hPa 0,0 l/m 1,3 km/h (1 Bft) S 180 0,3 C 1,4 C 1,8 km/h (1 Bft)
16.02.2014 20:00 1,1 C 94 % 1015,2 hPa 0,0 l/m 2,4 km/h (1 Bft) SO 135 0,2 C 1,3 C 2,7 km/h (1 Bft)
16.02.2014 20:05 1,0 C 94 % 1015,2 hPa 0,0 l/m 1,6 km/h (1 Bft) SO 135 0,1 C 1,3 C 0,0 km/h (0 Bft)
16.02.2014 20:10 1,1 C 94 % 1015,5 hPa 0,0 l/m 0,6 km/h (0 Bft) N-NW 337 0,2 C 1,3 C 2,4 km/h (1 Bft)
16.02.2014 20:15 1,1 C 94 % 1015,5 hPa 0,0 l/m 0,5 km/h (0 Bft) W-SW 247 0,2 C 1,3 C 0,0 km/h (0 Bft)
16.02.2014 20:20 1,2 C 94 % 1015,5 hPa 0,0 l/m 1,0 km/h (0 Bft) W-SW 247 0,3 C 1,3 C 1,9 km/h (1 Bft)
16.02.2014 20:25 1,1 C 95 % 1015,5 hPa 0,0 l/m 1,1 km/h (1 Bft) W-SW 247 0,4 C 1,4 C 4,2 km/h (1 Bft)
16.02.2014 20:30 1,2 C 95 % 1015,3 hPa 0,0 l/m 1,6 km/h (1 Bft) S 180 0,5 C 1,4 C 4,0 km/h (1 Bft)
16.02.2014 20:35 1,3 C 95 % 1015,3 hPa 0,0 l/m 2,3 km/h (1 Bft) O-NO 67 0,6 C 1,5 C 2,6 km/h (1 Bft)
16.02.2014 20:40 1,3 C 95 % 1015,3 hPa 0,0 l/m 2,1 km/h (1 Bft) S-SW 202 0,6 C 1,5 C 0,0 km/h (0 Bft)
16.02.2014 20:45 1,3 C 95 % 1015,3 hPa 0,0 l/m 1,0 km/h (0 Bft) O-SO 112 0,6 C 1,6 C 0,0 km/h (0 Bft)
16.02.2014 20:50 1,3 C 95 % 1015,4 hPa 0,0 l/m 1,1 km/h (1 Bft) S 180 0,6 C 1,5 C 4,3 km/h (1 Bft)
16.02.2014 20:55 1,4 C 95 % 1015,4 hPa 0,0 l/m 2,3 km/h (1 Bft) SO 135 0,7 C 1,6 C 5,1 km/h (1 Bft)
16.02.2014 21:00 1,5 C 95 % 1015,4 hPa 0,0 l/m 3,1 km/h (1 Bft) SO 135 0,8 C 1,4 C 2,6 km/h (1 Bft)
16.02.2014 21:05 1,5 C 95 % 1015,4 hPa 0,0 l/m 2,4 km/h (1 Bft) S 180 0,8 C 1,7 C 0,0 km/h (0 Bft)
16.02.2014 21:10 1,4 C 95 % 1015,6 hPa 0,0 l/m 2,1 km/h (1 Bft) S 180 0,7 C 1,7 C 2,7 km/h (1 Bft)
16.02.2014 21:15 1,4 C 95 % 1015,6 hPa 0,0 l/m 2,6 km/h (1 Bft) S 180 0,7 C 1,7 C 3,5 km/h (1 Bft)
16.02.2014 21:20 1,5 C 95 % 1015,6 hPa 0,0 l/m 2,9 km/h (1 Bft) SO 135 0,8 C 1,5 C 3,7 km/h (1 Bft)
16.02.2014 21:25 1,4 C 95 % 1015,6 hPa 0,0 l/m 2,6 km/h (1 Bft) O-SO 112 0,7 C 1,6 C 2,1 km/h (1 Bft)
16.02.2014 21:30 1,3 C 95 % 1015,2 hPa 0,0 l/m 2,3 km/h (1 Bft) N-NO 22 0,6 C 1,6 C 3,2 km/h (1 Bft)
16.02.2014 21:35 1,3 C 95 % 1015,2 hPa 0,0 l/m 2,4 km/h (1 Bft) S-SO 157 0,6 C 1,5 C 4,2 km/h (1 Bft)
16.02.2014 21:40 1,3 C 95 % 1015,2 hPa 0,0 l/m 2,7 km/h (1 Bft) O-SO 112 0,6 C 1,4 C 3,4 km/h (1 Bft)
16.02.2014 21:45 1,3 C 95 % 1015,2 hPa 0,0 l/m 2,7 km/h (1 Bft) O-SO 112 0,6 C 1,4 C 3,2 km/h (1 Bft)
16.02.2014 21:50 1,2 C 95 % 1014,9 hPa 0,0 l/m 2,4 km/h (1 Bft) S-SO 157 0,5 C 1,4 C 0,0 km/h (0 Bft)
16.02.2014 21:55 1,1 C 95 % 1014,9 hPa 0,0 l/m 1,3 km/h (1 Bft) SO 135 0,4 C 1,4 C 0,0 km/h (0 Bft)
16.02.2014 22:00 1,0 C 95 % 1014,9 hPa 0,0 l/m 0,3 km/h (0 Bft) W-SW 247 0,3 C 1,3 C 1,6 km/h (1 Bft)
16.02.2014 22:03 1,0 C 95 % 1014,9 hPa 0,0 l/m 0,5 km/h (0 Bft) S-SW 202 0,3 C 1,2 C 0,0 km/h (0 Bft)
16.02.2014 22:05 1,0 C 95 % 1014,9 hPa 0,0 l/m 0,5 km/h (0 Bft) S-SW 202 0,3 C 1,2 C 0,0 km/h (0 Bft)
16.02.2014 22:10 1,0 C 95 % 1015,1 hPa 0,0 l/m 0,2 km/h (0 Bft) W-SW 247 0,3 C 1,2 C 0,0 km/h (0 Bft)
16.02.2014 22:15 1,1 C 95 % 1015,1 hPa 0,0 l/m 0,0 km/h (0 Bft) W-SW 247 0,4 C 1,1 C 0,0 km/h (0 Bft)
16.02.2014 22:20 1,0 C 95 % 1015,1 hPa 0,0 l/m 0,2 km/h (0 Bft) S-SO 157 0,3 C 1,1 C 2,1 km/h (1 Bft)
16.02.2014 22:25 1,0 C 95 % 1015,1 hPa 0,0 l/m 0,2 km/h (0 Bft) N 360 0,3 C 1,1 C 0,0 km/h (0 Bft)
16.02.2014 22:30 0,9 C 95 % 1014,8 hPa 0,0 l/m 0,2 km/h (0 Bft) N-NO 22 0,2 C 1,1 C 0,0 km/h (0 Bft)
16.02.2014 22:35 0,8 C 95 % 1014,8 hPa 0,0 l/m 0,2 km/h (0 Bft) N-NW 337 0,1 C 1,2 C 0,0 km/h (0 Bft)
16.02.2014 22:40 1,0 C 95 % 1014,8 hPa 0,0 l/m 0,6 km/h (0 Bft) W-SW 247 0,3 C 1,2 C 2,6 km/h (1 Bft)
16.02.2014 22:45 1,1 C 95 % 1014,8 hPa 0,0 l/m 0,8 km/h (0 Bft) NW 315 0,4 C 1,3 C 0,0 km/h (0 Bft)
16.02.2014 22:50 1,1 C 95 % 1014,6 hPa 0,0 l/m 1,6 km/h (1 Bft) W-SW 247 0,4 C 1,3 C 1,6 km/h (1 Bft)
16.02.2014 22:55 1,1 C 95 % 1014,6 hPa 0,0 l/m 1,1 km/h (1 Bft) W-NW 292 0,4 C 1,4 C 0,0 km/h (0 Bft)
16.02.2014 23:00 1,1 C 95 % 1014,6 hPa 0,0 l/m 0,6 km/h (0 Bft) N 360 0,4 C 1,3 C 1,6 km/h (1 Bft)
16.02.2014 23:05 1,0 C 95 % 1014,6 hPa 0,0 l/m 0,5 km/h (0 Bft) W-SW 247 0,3 C 1,3 C 0,0 km/h (0 Bft)
16.02.2014 23:10 1,1 C 95 % 1014,6 hPa 0,0 l/m 0,0 km/h (0 Bft) W-NW 292 0,4 C 1,3 C 0,0 km/h (0 Bft)
16.02.2014 23:15 1,0 C 96 % 1014,6 hPa 0,0 l/m 0,0 km/h (0 Bft) NW 315 0,4 C 1,3 C 0,0 km/h (0 Bft)
16.02.2014 23:20 1,0 C 96 % 1014,6 hPa 0,0 l/m 0,0 km/h (0 Bft) N 360 0,4 C 1,2 C 0,0 km/h (0 Bft)
16.02.2014 23:25 1,0 C 96 % 1014,6 hPa 0,0 l/m 0,2 km/h (0 Bft) W-NW 292 0,4 C 1,2 C 0,0 km/h (0 Bft)
16.02.2014 23:30 1,0 C 96 % 1014,5 hPa 0,0 l/m 0,8 km/h (0 Bft) O-NO 67 0,4 C 1,2 C 2,7 km/h (1 Bft)
16.02.2014 23:35 1,0 C 96 % 1014,5 hPa 0,0 l/m 0,8 km/h (0 Bft) N-NW 337 0,4 C 1,2 C 0,0 km/h (0 Bft)
16.02.2014 23:40 1,0 C 96 % 1014,5 hPa 0,0 l/m 1,4 km/h (1 Bft) N-NO 22 0,4 C 1,2 C 2,3 km/h (1 Bft)
16.02.2014 23:45 1,0 C 96 % 1014,5 hPa 0,0 l/m 1,1 km/h (1 Bft) N-NO 22 0,4 C 1,2 C 0,0 km/h (0 Bft)
16.02.2014 23:50 0,8 C 96 % 1014,2 hPa 0,0 l/m 0,5 km/h (0 Bft) N-NO 22 0,2 C 1,1 C 0,0 km/h (0 Bft)
16.02.2014 23:55 0,8 C 96 % 1014,2 hPa 0,0 l/m 0,0 km/h (0 Bft) N-NO 22 0,2 C 1,0 C 0,0 km/h (0 Bft)
_ Min-Zeit 23:55 13:55 00:25 - 23:55 - - 13:55 02:25 23:55
Minimum _ 0,8 C 71 % 1011,8 hPa - 0,0 km/h (0 Bft) - - -0,5 C -1,6 C 0,0 km/h (0 Bft)
_ Max-Zeit 00:00 23:55 15:45 23:55 01:20 - - 10:25 12:15 02:20
Maximum _ 4,9 C 96 % 1015,9 hPa 0,0 l/m 8,9 km/h
S (2 Bft)
- - 2,5 C 6,2 C 22,0 km/h
S-SO (4 Bft)
Durchschnitt _ 2,5 C 89 % 1014,5 hPa #0,0 l/m 3,7 km/h (1 Bft) S - 0,8 C 2,0 C 4,6 km/h (1 Bft)